Regional Weather Roundup
Issued by NWS Wakefield, VA

Home | Current Version | Previous Version | Graphics & Text | Print | Product List | Glossary On
Versions: 1 2 3 4 5 6 7 8 9 10 11 12 13 14 15 16 17 18 19 20 21 22 23 24 25 26 27 28 29 30 31 32 33 34 35 36 37 38 39 40 41 42 43 44 45 46 47 48 49 50
000
ASUS41 KAKQ 101714
RWRAKQ

REGIONAL WEATHER ROUNDUP
NATIONAL WEATHER SERVICE WAKEFIELD VA
1200 PM EST WED FEB 10 2016

Note: "fair" indicates few or no clouds below 12,000 feet with no
significant weather and/or obstructions to visibility. * = Denotes
station may not report precipitation (e.g., rain,snow,etc.),
thunder or fog.

VAZ042-051-052>054-056-101800-
NORTHERN VIRGINIA

CITY           SKY/WX    TMP DP  RH WIND       PRES   REMARKS
WASH NATIONAL  FAIR      37  16  42 W16G22    29.81F
DULLES         PTSUNNY   35  16  45 NW20G25   29.79F WCI  24
FORT BELVOIR   FAIR      37  15  40 NW10G21   29.80F
QUANTICO       FAIR      39  18  42 NW12      29.82F
FREDERICKSBRG* FAIR      37  19  47 W8        29.81F
STAFFORD*      FAIR      37  18  46 W6        29.85F
WARRENTON      FAIR      38  20  49 W5        29.79F
CULPEPER*      PTSUNNY   35  15  44 NW10      29.82S
MANASSAS*      MOSUNNY   36  19  51 NW12      29.80F
LEESBURG*      FAIR      34  23  64 NW13G21   29.80F WCI  25
WINCHESTER     CLOUDY    32  16  51 W14G21    29.79F WCI  22
FRONT ROYAL*   CLOUDY    32  16  51 W13       29.79F WCI  22
LURAY*         FAIR      32  12  43 W9G17     29.79F
$$

VAZ048-049-060>072-079>083-101800-
CENTRAL AND SOUTH CENTRAL VIRGINIA

CITY           SKY/WX    TMP DP  RH WIND       PRES   REMARKS
RICHMOND       FAIR      37  14  38 W8        29.83F
CHESTERFIELD*  FAIR      39  10  30 W9G17     29.85F
PETERSBURG*    FAIR      39   8  27 W8        29.85F
HANOVER        FAIR      37  16  42 W12       29.84F
TAPPAHANNOCK*  FAIR      37  20  49 NW7       29.83F
QUINTON*       FAIR      37  17  44 W9        29.83F
CHARLOTTSVILLE FAIR      36  12  37 VRB6      29.80F
GORDONSVILLE*  FAIR      36  14  40 SW14G20   29.80F
ORANGE*        FAIR      36  18  48 SW12      29.83S
LOUISA*        FAIR      37  16  41 NW7G18    29.79F
BUMPASS*       FAIR      35  16  44 NW3G16    29.81F
FARMVILLE*     FAIR      37  12  35 W7        29.83F
CREWE*         FAIR      36  16  43 W12       29.84F
FORT PICKETT*  FAIR      36  14  40 W10G17    29.84F
CHASE CITY*    FAIR      35  11  38 W7G17     29.87S
CLARKSVILLE*   FAIR      36  16  44 W9G17     29.88F
SOUTH HILL*    FAIR      35  15  42 W9        29.92F
LAWRENCEVILLE* FAIR      37  15  41 W8G20     29.85F
EMPORIA*       FAIR      36  16  44 SW6       29.88F
$$

VAZ088>098-101800-
SOUTHEAST VIRGINIA

CITY           SKY/WX    TMP DP  RH WIND       PRES   REMARKS
NORFOLK        FAIR      38  15  39 W9        29.84F
VIRGINIA BEACH FAIR      45  17  32 W14       29.83F
NORFOLK NAVAL  FAIR      39  17  41 W13       29.85F
WEST POINT*    FAIR      38  18  44 W7        29.85F
SALUDA*        FAIR      36  21  54 NW3       29.82F
NEWPORT NEWS   FAIR      38  18  44 W12       29.84F
LANGLEY AFB    SUNNY     38  19  45 W13       29.83S
FORT EUSTIS    FAIR      39  16  39 NW6       29.82F
WILLIAMSBURG*    N/A     43  19  39 NW8G18    29.85S
HR EXEC AP*    FAIR      39  18  41 W12G17    29.87S
FRANKLIN*      FAIR      37  17  44 W6        29.87F
US460-WAKEFLD  FAIR      39  15  37 SW13      29.85F
$$

VAZ020-022-025-037-045-101800-
WEST CENTRAL AND SOUTHWEST VIRGINIA

CITY           SKY/WX    TMP DP  RH WIND       PRES   REMARKS
STAUNTON*      FAIR      35  12  39 W14       29.80F
WAYNESBORO*    PTSUNNY   30  10  43 SW12      29.79F WCI  20
HOT SPRINGS VA CLOUDY    13   6  73 W20G25    29.64S WCI  -5
LYNCHBURG      FAIR      31  13  47 W13G22    29.85F WCI  21
DANVILLE       FAIR      34  13  41 SW12      29.89F
SOUTH BOSTON*  FAIR      36  12  37 SW7G17    29.88F
MARTINSVILLE   CLOUDY    30  10  42 N8        29.91F
ROANOKE        CLOUDY    29   7  39 NW18G25   29.88F WCI  16
BLACKSBURG     CLOUDY    20  10  64 NW9G18    29.86F
DUBLIN*        CLOUDY    22  12  64 W10       29.86S WCI  11
MARION*        CLOUDY    18   8  65 W17G25    29.85F HAZE    WCI   2
HILLSVILLE*    CLOUDY    17   7  65 NW16G23   29.79F WCI   1
RICHLANDS*     LGT SNOW  15   3  59 W14G28    29.86S WCI   0
WISE*          LGT SNOW  19   7  58 W10       29.89S WCI   8
ABINGDON*      CLOUDY    21   5  51 W16G22    29.93R WCI   7
$$

MDZ021>025-VAZ099-100-101800-
SOUTHERN MARYLAND AND THE DELMARVA PENINSULA

CITY           SKY/WX    TMP DP  RH WIND       PRES   REMARKS
PATUXENT RIVER MOSUNNY   37  18  46 W15       29.80F
BAY BRIDGE APT   N/A     36  21  55 W16G23    29.79F
LEONARDTOWN    MOSUNNY   36  19  51 W13G18    29.81F
DOVER          PTSUNNY   35  23  62 W15G28    29.74F
GEORGETOWN     PTSUNNY   35  20  54 W13G21    29.77F
EASTON         PTSUNNY   36  21  55 NW9G18    29.82F
CAMBRIDGE      PTSUNNY   34  21  60 NW10G18   29.79F
SALISBURY      CLOUDY    34  21  59 NW14      29.78F WCI  25
OCEAN CITY     CLOUDY    34  22  61 NW9       29.78S
WALLOPS ISLAND PTSUNNY   38  23  55 W13       29.80F
ACCOMACK*      PTSUNNY   34  21  60 W14       29.82S WCI  24
$$

NCZ012>017-030>032-101800-
NORTH CENTRAL AND EASTERN NORTH CAROLINA

CITY           SKY/WX    TMP DP  RH WIND       PRES   REMARKS
ROANOKE RAPIDS FAIR      37  19  48 W8        29.89F
RALEIGH        MOSUNNY   36  15  42 VRB6      29.91F
ELIZABETH CITY SUNNY     38  21  50 W10       29.87F
AHOSKIE*       SUNNY     37  18  47 CALM      29.88F
EDENTON*       SUNNY     39  19  44 W9G18     29.89F
CURRITUCK*     SUNNY     38  21  50 SW7       29.87F
KILL DEVIL HLS SUNNY     39  20  47 W12G18    29.86F
MANTEO         SUNNY     37  21  52 NW12G18   29.88F
CAPE HATTERAS  SUNNY     39  22  50 W10G21    29.90F
TARBORO*       FAIR      38  19  44 W12G17    29.91F
GOLDSBORO      SUNNY     39  16  38 W9        29.90F
WASHINGTON     SUNNY     37  18  46 SW13      29.90F
GREENVILLE     SUNNY     37  19  48 W10G16    29.94F
NEW BERN       SUNNY     40  16  37 W13G21    29.93F
WILMINGTON     MOSUNNY   41  20  43 W14       29.94F
$$

VAZ048-101800-
ELSEWHERE

CITY           SKY/WX    TMP DP  RH WIND       PRES   REMARKS
HARRISBURG PA  CLOUDY    32  19  58 W20       29.74S WCI  20
BALTIMORE      PTSUNNY   33  18  53 W18G25    29.79S WCI  22
ANNAPOLIS      PTSUNNY   34  18  52 NW14G25   29.79F WCI  25
ANDREWS AFB    PTSUNNY   34  16  47 W18G24    29.77F WCI  23
PHILADELPHIA   PTSUNNY   35  22  58 W20G26    29.73S WCI  24
HENDERSON NC   SUNNY     36  13  38 W9G16     29.88F
GREENSBORO     MOSUNNY   33  11  39 W16G22    29.88F WCI  23
ROCKY MOUNT    SUNNY     36  18  48 W8        29.91F
$$

VAZ100-101800-
MARINE

STATION/POSITION TIME  TEMP    WIND        PRES    WAVE   SWELL
                       AIR SEA DIR/SP/G            HT/PER HT/PER
                 (UTC) (F)     (DEG/KT/KT) (MB)    (FT/S) (FT/S)
BRANDYWINE LGT   1600   32     300/ 23/ 28 1007.6F
CAPE MAY NJ      1600   33 42  290/ 21/ 26 1007.3R
LEWES DE         1600   33 41  290/ 21/ 24 1007.9F
15NM E FENWICK I 1650   34 43              1007.5F   6/13
OCEAN-CITY-INLET 1600   33 41  300/ 15/ 20 1007.7F
WACHAPREAGUE VA  1600   36 42  280/  7/ 12 1009.9R
THOMAS POINT MD  1600   33 38  310/ 17/ 20 1009.6S
GOOSES REEF MD   1700   35 39  300/ 16/ 19 1009.8F   2/ 3
COVE POINT MD    1600   33     340/ 12/ 19 1010.0S
SOLOMONS ISLAND  1600   35 41  310/  8/ 13   N/A
BISHOPS HEAD MD  1600   34 38  300/ 13/ 15 1008.7S
PINEY POINT MD   1600          320/ 15/ 18   N/A
POTOMAC MD       1700   35 40  310/ 14/ 16 1008.6F   2/ 3
CAMBRIDGE MD     1600   33 40  280/ 12/ 18 1008.5S
LEWISETTA VA     1600   34 41  300/ 12/ 17 1009.8R
RAPPAHANNOCK LGT 1600          290/ 14/ 17 1010.4R
STINGRAY PT      1700   35 42  310/ 12/ 14 1009.6F   1/ 2
YORK RVR RNG VA  1600   35     280/ 12/ 13 1009.7S
YORKTOWN VA      1600   35 42  290/ 10/ 12 1010.3R
JAMESTOWN VA     1700   35 44  310/ 10/ 14   N/A     1
DOMINION TERM VA 1600   35     290/ 11/ 13 1010.7F
KIPTOPEKE VA     1600      42  300/ 13/ 18   N/A
CHES BAY BRIDGE  1600   33 42  250/ 14/ 17 1010.3F
CAPE HENRY VA    1600   35     250/  9/ 15   N/A
CHESAPEAKE LGHT  1600   36     280/ 14/ 16 1011.3F
WILLOUBY STN VA  1600   34     280/ 12/ 14 1011.3
1ST LANDING BUOY 1700      43                N/A     2/ 3
64NM E OF VA BCH 1650   37 50  290/ 17/ 23 1009.8F   7/ 6   3/13
DUCK PIER NC     1600   34     260/ 11/ 15 1011.1F
44056 DUCK FRF   1611      44                N/A     4/14   3/14
OREGON INLET NC  1600   36 43  270/ 10/ 15 1012.0S
HATTERAS NC      1600   35 49  270/ 17/ 22 1012.6S
DIAMOND SHLS NC  1650   38 72  280/ 19/ 25 1012.7F   7/ 7   5/ 8
$$



USA.gov is the U.S. government's official web portal to all federal, state and local government web resources and services.